owner,sensor,date,latitude,longitude,vertical_datum,wind_speed,wind_to_direction,wind_speed_of_gust,qcFlag 
TABS,ioos:station:wmo:42046:1,2011-09-01T00:00:00Z,27.8903,-94.0367,4.0,5.970535989,90.76815581,6.87,'11111222,11111222,11111222' 
TABS,ioos:station:wmo:42046:1,2011-09-01T00:30:00Z,27.8903,-94.0367,4.0,6.187802518,79.28894005,7.65,'11111222,11111222,11111222' 
TABS,ioos:station:wmo:42046:1,2011-09-01T01:00:00Z,27.8903,-94.0367,4.0,6.691315267,80.01642385,7.95,'11111222,11111222,11111222' 
TABS,ioos:station:wmo:42046:1,2011-09-01T01:30:00Z,27.8903,-94.0367,4.0,6.495205924,92.29455127,7.75,'11111222,11111222,11111222' 
TABS,ioos:station:wmo:42046:1,2011-09-01T02:00:00Z,27.8903,-94.0367,4.0,6.621933252,88.61505961,7.83,'11111222,11111222,11111222' 
TABS,ioos:station:wmo:42046:1,2011-09-01T02:30:00Z,27.8903,-94.0367,4.0,6.781061864,91.01439727,8.42,'11111222,11111222,11111222' 
TABS,ioos:station:wmo:42046:1,2011-09-01T03:00:00Z,27.8903,-94.0367,4.0,7.51,90.00042092,8.86,'11111222,11111222,11111222' 
TABS,ioos:station:wmo:42046:1,2011-09-01T03:30:00Z,27.8903,-94.0367,4.0,7.270887154,96.079532,8.24,'11111222,11111222,11111222' 
TABS,ioos:station:wmo:42046:1,2011-09-01T04:00:00Z,27.8903,-94.0367,4.0,7.805081678,97.95401887,8.96,'11111222,11111222,11111222' 
TABS,ioos:station:wmo:42046:1,2011-09-01T04:30:00Z,27.8903,-94.0367,4.0,6.794593439,105.1001915,8.13,'11111222,11111222,11111222' 
TABS,ioos:station:wmo:42046:1,2011-09-01T05:00:00Z,27.8903,-94.0367,4.0,7.048269291,103.6225959,8.45,'11111222,11111222,11111222' 
TABS,ioos:station:wmo:42046:1,2011-09-01T05:30:00Z,27.8903,-94.0367,4.0,6.711609345,106.3561998,7.84,'11111222,11111222,11111222' 
TABS,ioos:station:wmo:42046:1,2011-09-01T06:00:00Z,27.8903,-94.0367,4.0,6.610484097,99.4912192,7.87,'11111222,11111222,11111222' 
TABS,ioos:station:wmo:42046:1,2011-09-01T06:30:00Z,27.8903,-94.0367,4.0,6.105710442,112.0283121,7.45,'11111222,11111222,11111222' 
TABS,ioos:station:wmo:42046:1,2011-09-01T07:00:00Z,27.8903,-94.0367,4.0,5.335260069,116.6134365,6.6,'11111222,11111222,11111222' 
TABS,ioos:station:wmo:42046:1,2011-09-01T07:30:00Z,27.8903,-94.0367,4.0,5.698929724,107.6722777,6.69,'11111222,11111222,11111222' 
TABS,ioos:station:wmo:42046:1,2011-09-01T08:00:00Z,27.8903,-94.0367,4.0,5.162092599,109.6989962,6.02,'11111222,11111222,11111222' 
TABS,ioos:station:wmo:42046:1,2011-09-01T08:30:00Z,27.8903,-94.0367,4.0,4.108588565,103.799874,5.02,'11111222,11111222,11111222' 
TABS,ioos:station:wmo:42046:1,2011-09-01T09:00:00Z,27.8903,-94.0367,4.0,3.693995127,97.77953992,4.43,'11111222,11111222,11111222' 
TABS,ioos:station:wmo:42046:1,2011-09-01T09:30:00Z,27.8903,-94.0367,4.0,3.372906758,98.01038778,4.37,'11111222,11111222,11111222' 
TABS,ioos:station:wmo:42046:1,2011-09-01T10:00:00Z,27.8903,-94.0367,4.0,4.130108957,72.09111165,5.39,'11111222,11111222,11111222' 
TABS,ioos:station:wmo:42046:1,2011-09-01T10:30:00Z,27.8903,-94.0367,4.0,4.048826991,72.90729426,4.96,'11111222,11111222,11111222' 
TABS,ioos:station:wmo:42046:1,2011-09-01T11:00:00Z,27.8903,-94.0367,4.0,4.617813335,60.27015699,5.51,'11111222,11111222,11111222' 
TABS,ioos:station:wmo:42046:1,2011-09-01T11:30:00Z,27.8903,-94.0367,4.0,4.775280096,46.78164074,5.7,'11111222,11111222,11111222' 
TABS,ioos:station:wmo:42046:1,2011-09-01T12:00:00Z,27.8903,-94.0367,4.0,4.021504694,51.56236747,4.85,'11111222,11111222,11111222' 
TABS,ioos:station:wmo:42046:1,2011-09-01T12:30:00Z,27.8903,-94.0367,4.0,4.192970308,41.71266691,4.88,'11111222,11111222,11111222' 
TABS,ioos:station:wmo:42046:1,2011-09-01T13:00:00Z,27.8903,-94.0367,4.0,4.242852814,44.42674695,4.89,'11111222,11111222,11111222' 
TABS,ioos:station:wmo:42046:1,2011-09-01T13:30:00Z,27.8903,-94.0367,4.0,4.553855509,44.64381531,5.52,'11111222,11111222,11111222' 
TABS,ioos:station:wmo:42046:1,2011-09-01T14:00:00Z,27.8903,-94.0367,4.0,4.387185886,35.53738423,5.35,'11111222,11111222,11111222' 
TABS,ioos:station:wmo:42046:1,2011-09-01T14:30:00Z,27.8903,-94.0367,4.0,4.496798861,31.35680144,5.58,'11111222,11111222,11111222' 
TABS,ioos:station:wmo:42046:1,2011-09-01T15:00:00Z,27.8903,-94.0367,4.0,4.868808889,24.51186145,5.71,'11111222,11111222,11111222' 
TABS,ioos:station:wmo:42046:1,2011-09-01T15:30:00Z,27.8903,-94.0367,4.0,5.306166224,30.96347367,5.9,'11111222,11111222,11111222' 
TABS,ioos:station:wmo:42046:1,2011-09-01T16:00:00Z,27.8903,-94.0367,4.0,5.796636956,28.99672286,6.76,'11111222,11111222,11111222' 
TABS,ioos:station:wmo:42046:1,2011-09-01T16:30:00Z,27.8903,-94.0367,4.0,7.544991716,45.37556413,9.29,'11111222,11111222,11111222' 
TABS,ioos:station:wmo:42046:1,2011-09-01T17:00:00Z,27.8903,-94.0367,4.0,6.575484773,21.68788372,7.75,'11111222,11111222,11111222' 
TABS,ioos:station:wmo:42046:1,2011-09-01T17:30:00Z,27.8903,-94.0367,4.0,7.344800882,34.40377316,8.22,'11111222,11111222,11111222' 
TABS,ioos:station:wmo:42046:1,2011-09-01T18:00:00Z,27.8903,-94.0367,4.0,7.539084825,43.92484521,8.87,'11111222,11111222,11111222' 
TABS,ioos:station:wmo:42046:1,2011-09-01T18:30:00Z,27.8903,-94.0367,4.0,7.365140868,46.92532551,9.05,'11111222,11111222,11111222' 
TABS,ioos:station:wmo:42046:1,2011-09-01T19:00:00Z,27.8903,-94.0367,4.0,7.073118124,38.5709516,8.48,'11111222,11111222,11111222' 
TABS,ioos:station:wmo:42046:1,2011-09-01T19:30:00Z,27.8903,-94.0367,4.0,6.98307239,25.17028494,8.32,'11111222,11111222,11111222' 
TABS,ioos:station:wmo:42046:1,2011-09-01T20:00:00Z,27.8903,-94.0367,4.0,7.206233413,37.33075496,8.12,'11111222,11111222,11111222' 
TABS,ioos:station:wmo:42046:1,2011-09-01T20:30:00Z,27.8903,-94.0367,4.0,6.975514318,33.30249751,8.0,'11111222,11111222,11111222' 
TABS,ioos:station:wmo:42046:1,2011-09-01T21:00:00Z,27.8903,-94.0367,4.0,7.752270635,34.22274566,8.78,'11111222,11111222,11111222' 
TABS,ioos:station:wmo:42046:1,2011-09-01T21:30:00Z,27.8903,-94.0367,4.0,7.561117642,37.85474646,8.94,'11111222,11111222,11111222' 
TABS,ioos:station:wmo:42046:1,2011-09-01T22:00:00Z,27.8903,-94.0367,4.0,6.858644181,37.65488144,8.17,'11111222,11111222,11111222' 
TABS,ioos:station:wmo:42046:1,2011-09-01T22:30:00Z,27.8903,-94.0367,4.0,6.786199231,30.9489941,8.41,'11111222,11111222,11111222' 
TABS,ioos:station:wmo:42046:1,2011-09-01T23:00:00Z,27.8903,-94.0367,4.0,8.465772262,26.44371032,11.65,'11111222,11111222,11111222' 
TABS,ioos:station:wmo:42046:1,2011-09-01T23:30:00Z,27.8903,-94.0367,4.0,8.210846485,49.24700418,9.81,'11111222,11111222,11111222' 
TABS,ioos:station:wmo:42046:1,2011-09-02T00:00:00Z,27.8903,-94.0367,4.0,10.22998045,58.79576373,12.39,'11111222,11111222,11111222' 
TABS,ioos:station:wmo:42046:1,2011-09-02T00:30:00Z,27.8903,-94.0367,4.0,10.0084864,67.25206194,11.91,'11111222,11111222,11111222' 
TABS,ioos:station:wmo:42046:1,2011-09-02T01:00:00Z,27.8903,-94.0367,4.0,11.62209103,73.96618799,13.71,'11111222,11111222,11111222' 
TABS,ioos:station:wmo:42046:1,2011-09-02T01:30:00Z,27.8903,-94.0367,4.0,11.87650622,84.92745807,15.15,'11111222,11111222,11111222' 
TABS,ioos:station:wmo:42046:1,2011-09-02T02:00:00Z,27.8903,-94.0367,4.0,10.78786355,80.50235328,13.27,'11111222,11111222,11111222' 
TABS,ioos:station:wmo:42046:1,2011-09-02T02:30:00Z,27.8903,-94.0367,4.0,10.20974534,84.94234238,12.25,'11111222,11111222,11111222' 
TABS,ioos:station:wmo:42046:1,2011-09-02T03:00:00Z,27.8903,-94.0367,4.0,11.21151194,85.70279161,13.05,'11111222,11111222,11111222' 
TABS,ioos:station:wmo:42046:1,2011-09-02T03:30:00Z,27.8903,-94.0367,4.0,11.60527897,88.27135547,13.34,'11111222,11111222,11111222' 
TABS,ioos:station:wmo:42046:1,2011-09-02T04:00:00Z,27.8903,-94.0367,4.0,10.86660941,85.98910379,13.3,'11111222,11111222,11111222' 
TABS,ioos:station:wmo:42046:1,2011-09-02T04:30:00Z,27.8903,-94.0367,4.0,10.95965784,87.59405312,13.19,'11111222,11111222,11111222' 
TABS,ioos:station:wmo:42046:1,2011-09-02T05:00:00Z,27.8903,-94.0367,4.0,9.931857832,75.83744414,11.61,'11111222,11111222,11111222' 
TABS,ioos:station:wmo:42046:1,2011-09-02T05:30:00Z,27.8903,-94.0367,4.0,9.539250495,87.47611534,10.83,'11111222,11111222,11111222' 
TABS,ioos:station:wmo:42046:1,2011-09-02T06:00:00Z,27.8903,-94.0367,4.0,8.680282253,89.53752744,9.93,'11111222,11111222,11111222' 
TABS,ioos:station:wmo:42046:1,2011-09-02T06:30:00Z,27.8903,-94.0367,4.0,8.052254343,84.86958285,9.29,'11111222,11111222,11111222' 
TABS,ioos:station:wmo:42046:1,2011-09-02T07:00:00Z,27.8903,-94.0367,4.0,7.774625393,74.17569515,9.12,'11111222,11111222,11111222' 
TABS,ioos:station:wmo:42046:1,2011-09-02T07:30:00Z,27.8903,-94.0367,4.0,7.507569513,71.03372639,8.94,'11111222,11111222,11111222' 
TABS,ioos:station:wmo:42046:1,2011-09-02T08:00:00Z,27.8903,-94.0367,4.0,7.783945015,67.09099806,9.0,'11111222,11111222,11111222' 
TABS,ioos:station:wmo:42046:1,2011-09-02T08:30:00Z,27.8903,-94.0367,4.0,7.714726178,55.13541034,9.38,'11111222,11111222,11111222' 
TABS,ioos:station:wmo:42046:1,2011-09-02T09:00:00Z,27.8903,-94.0367,4.0,6.570273967,52.6065343,7.77,'11111222,11111222,11111222' 
TABS,ioos:station:wmo:42046:1,2011-09-02T09:30:00Z,27.8903,-94.0367,4.0,6.172859953,40.26875675,7.71,'11111222,11111222,11111222' 
TABS,ioos:station:wmo:42046:1,2011-09-02T10:00:00Z,27.8903,-94.0367,4.0,7.056132085,39.94042306,8.04,'11111222,11111222,11111222' 
TABS,ioos:station:wmo:42046:1,2011-09-02T10:30:00Z,27.8903,-94.0367,4.0,6.563299475,42.09721243,7.76,'11111222,11111222,11111222' 
TABS,ioos:station:wmo:42046:1,2011-09-02T11:00:00Z,27.8903,-94.0367,4.0,7.218787987,31.5760196,8.44,'11111222,11111222,11111222' 
TABS,ioos:station:wmo:42046:1,2011-09-02T11:30:00Z,27.8903,-94.0367,4.0,7.698129643,19.42326482,9.63,'11111222,11111222,11111222' 
TABS,ioos:station:wmo:42046:1,2011-09-02T12:00:00Z,27.8903,-94.0367,4.0,8.101882497,11.82285998,9.99,'11111222,11111222,11111222' 
TABS,ioos:station:wmo:42046:1,2011-09-02T12:30:00Z,27.8903,-94.0367,4.0,6.251799741,35.4947694,7.27,'11111222,11111222,11111222' 
TABS,ioos:station:wmo:42046:1,2011-09-02T13:00:00Z,27.8903,-94.0367,4.0,7.32148892,32.27884076,8.54,'11111222,11111222,11111222' 
TABS,ioos:station:wmo:42046:1,2011-09-02T13:30:00Z,27.8903,-94.0367,4.0,7.537599087,29.65974684,8.57,'11111222,11111222,11111222' 
TABS,ioos:station:wmo:42046:1,2011-09-02T14:00:00Z,27.8903,-94.0367,4.0,10.04235032,44.0313994,12.02,'11111222,11111222,11111222' 
TABS,ioos:station:wmo:42046:1,2011-09-02T14:30:00Z,27.8903,-94.0367,4.0,8.410433996,42.20464145,10.12,'11111222,11111222,11111222' 
TABS,ioos:station:wmo:42046:1,2011-09-02T15:00:00Z,27.8903,-94.0367,4.0,10.79757843,45.18729217,12.92,'11111222,11111222,11111222' 
TABS,ioos:station:wmo:42046:1,2011-09-02T15:30:00Z,27.8903,-94.0367,4.0,11.69626436,58.85107094,14.02,'11111222,11111222,11111222' 
TABS,ioos:station:wmo:42046:1,2011-09-02T16:00:00Z,27.8903,-94.0367,4.0,10.320281,33.4588108,17.12,'11111222,11111222,11111222' 
TABS,ioos:station:wmo:42046:1,2011-09-02T16:30:00Z,27.8903,-94.0367,4.0,10.30800175,36.83625077,12.48,'11111222,11111222,11111222' 
TABS,ioos:station:wmo:42046:1,2011-09-02T17:00:00Z,27.8903,-94.0367,4.0,9.027319646,23.15665625,10.93,'11111222,11111222,11111222' 
TABS,ioos:station:wmo:42046:1,2011-09-02T17:30:00Z,27.8903,-94.0367,4.0,9.952366553,32.85946474,11.65,'11111222,11111222,11111222' 
TABS,ioos:station:wmo:42046:1,2011-09-02T18:00:00Z,27.8903,-94.0367,4.0,11.32376263,39.48134718,13.71,'11111222,11111222,11111222' 
TABS,ioos:station:wmo:42046:1,2011-09-02T18:30:00Z,27.8903,-94.0367,4.0,10.2742883,42.86983609,13.57,'11111222,11111222,11111222' 
TABS,ioos:station:wmo:42046:1,2011-09-02T19:00:00Z,27.8903,-94.0367,4.0,11.97761245,42.29268632,14.41,'11111222,11111222,11111222' 
TABS,ioos:station:wmo:42046:1,2011-09-02T19:30:00Z,27.8903,-94.0367,4.0,11.93167633,32.43775936,14.52,'11111222,11111222,11111222' 
TABS,ioos:station:wmo:42046:1,2011-09-02T20:00:00Z,27.8903,-94.0367,4.0,11.73641342,35.70763624,14.56,'11111222,11111222,11111222' 
TABS,ioos:station:wmo:42046:1,2011-09-02T20:30:00Z,27.8903,-94.0367,4.0,11.6722063,31.04765763,13.63,'11111222,11111222,11111222' 
TABS,ioos:station:wmo:42046:1,2011-09-02T21:00:00Z,27.8903,-94.0367,4.0,12.19787277,33.59858475,15.21,'11111222,11111222,11111222' 
TABS,ioos:station:wmo:42046:1,2011-09-02T21:30:00Z,27.8903,-94.0367,4.0,11.62723097,38.89038181,13.81,'11111222,11111222,11111222' 
TABS,ioos:station:wmo:42046:1,2011-09-02T22:00:00Z,27.8903,-94.0367,4.0,14.47265698,49.65172728,19.96,'11111222,11111222,11111222' 
TABS,ioos:station:wmo:42046:1,2011-09-02T22:30:00Z,27.8903,-94.0367,4.0,12.84992218,50.46242268,15.23,'11111222,11111222,11111222' 
TABS,ioos:station:wmo:42046:1,2011-09-02T23:00:00Z,27.8903,-94.0367,4.0,12.85812195,53.37930381,15.26,'11111222,11111222,11111222' 
TABS,ioos:station:wmo:42046:1,2011-09-02T23:30:00Z,27.8903,-94.0367,4.0,12.58032194,52.71986939,15.56,'11111222,11111222,11111222' 
TABS,ioos:station:wmo:42046:1,2011-09-03T00:00:00Z,27.8903,-94.0367,4.0,12.79453399,46.2347225,15.4,'11111222,11111222,11111222' 
TABS,ioos:station:wmo:42046:1,2011-09-03T00:30:00Z,27.8903,-94.0367,4.0,12.6069584,49.24556506,14.81,'11111222,11111222,11111222' 
TABS,ioos:station:wmo:42046:1,2011-09-03T01:00:00Z,27.8903,-94.0367,4.0,12.14347561,42.73041481,14.45,'11111222,11111222,11111222' 
TABS,ioos:station:wmo:42046:1,2011-09-03T01:30:00Z,27.8903,-94.0367,4.0,12.66340397,46.79158933,16.9,'11111222,11111222,11111222' 
TABS,ioos:station:wmo:42046:1,2011-09-03T02:00:00Z,27.8903,-94.0367,4.0,10.73071293,51.43158755,14.08,'11111222,11111222,11111222' 
TABS,ioos:station:wmo:42046:1,2011-09-03T02:30:00Z,27.8903,-94.0367,4.0,11.68821629,49.44091512,14.07,'11111222,11111222,11111222' 
TABS,ioos:station:wmo:42046:1,2011-09-03T03:00:00Z,27.8903,-94.0367,4.0,10.40693038,42.19560787,12.34,'11111222,11111222,11111222' 
TABS,ioos:station:wmo:42046:1,2011-09-03T03:30:00Z,27.8903,-94.0367,4.0,11.03915305,28.51491057,13.46,'11111222,11111222,11111222' 
TABS,ioos:station:wmo:42046:1,2011-09-03T04:00:00Z,27.8903,-94.0367,4.0,10.34799014,20.06326754,12.55,'11111222,11111222,11111222' 
TABS,ioos:station:wmo:42046:1,2011-09-03T04:30:00Z,27.8903,-94.0367,4.0,9.66935365,27.20078184,11.68,'11111222,11111222,11111222' 
TABS,ioos:station:wmo:42046:1,2011-09-03T05:00:00Z,27.8903,-94.0367,4.0,10.05915503,21.64249335,12.74,'11111222,11111222,11111222' 
TABS,ioos:station:wmo:42046:1,2011-09-03T05:30:00Z,27.8903,-94.0367,4.0,10.47551908,14.54009335,11.97,'11111222,11111222,11111222' 
TABS,ioos:station:wmo:42046:1,2011-09-03T06:00:00Z,27.8903,-94.0367,4.0,9.786342524,7.161098252,11.16,'11111222,11111222,11111222' 
TABS,ioos:station:wmo:42046:1,2011-09-03T06:30:00Z,27.8903,-94.0367,4.0,10.06508818,1.821700728,11.67,'11111222,11111222,11111222' 
TABS,ioos:station:wmo:42046:1,2011-09-03T07:00:00Z,27.8903,-94.0367,4.0,10.09013875,353.741132,11.64,'11111222,11111222,11111222' 
TABS,ioos:station:wmo:42046:1,2011-09-03T07:30:00Z,27.8903,-94.0367,4.0,9.805896185,339.0881782,11.4,'11111222,11111222,11111222' 
TABS,ioos:station:wmo:42046:1,2011-09-03T08:00:00Z,27.8903,-94.0367,4.0,9.249226995,346.9402,10.93,'11111222,11111222,11111222' 
TABS,ioos:station:wmo:42046:1,2011-09-03T08:30:00Z,27.8903,-94.0367,4.0,10.44092908,354.3383531,12.13,'11111222,11111222,11111222' 
TABS,ioos:station:wmo:42046:1,2011-09-03T09:00:00Z,27.8903,-94.0367,4.0,10.65369419,343.9805583,12.41,'11111222,11111222,11111222' 
TABS,ioos:station:wmo:42046:1,2011-09-03T09:30:00Z,27.8903,-94.0367,4.0,10.56808876,345.2535017,12.66,'11111222,11111222,11111222' 
TABS,ioos:station:wmo:42046:1,2011-09-03T10:00:00Z,27.8903,-94.0367,4.0,11.20787223,334.0749487,12.85,'11111222,11111222,11111222' 
TABS,ioos:station:wmo:42046:1,2011-09-03T10:30:00Z,27.8903,-94.0367,4.0,10.44686077,327.3898616,11.75,'11111222,11111222,11111222' 
TABS,ioos:station:wmo:42046:1,2011-09-03T11:00:00Z,27.8903,-94.0367,4.0,10.55796382,331.1771756,12.45,'11111222,11111222,11111222' 
TABS,ioos:station:wmo:42046:1,2011-09-03T11:30:00Z,27.8903,-94.0367,4.0,10.4028698,321.0476179,12.35,'11111222,11111222,11111222' 
TABS,ioos:station:wmo:42046:1,2011-09-03T12:00:00Z,27.8903,-94.0367,4.0,10.36751176,309.3243106,12.01,'11111222,11111222,11111222' 
TABS,ioos:station:wmo:42046:1,2011-09-03T12:30:00Z,27.8903,-94.0367,4.0,10.78069107,308.5601167,12.94,'11111222,11111222,11111222' 
TABS,ioos:station:wmo:42046:1,2011-09-03T13:00:00Z,27.8903,-94.0367,4.0,10.82266603,317.5837529,12.72,'11111222,11111222,11111222' 
TABS,ioos:station:wmo:42046:1,2011-09-03T13:30:00Z,27.8903,-94.0367,4.0,11.19936159,308.9473522,13.06,'11111222,11111222,11111222' 
TABS,ioos:station:wmo:42046:1,2011-09-03T14:00:00Z,27.8903,-94.0367,4.0,11.67812485,307.1347492,13.84,'11111222,11111222,11111222' 
TABS,ioos:station:wmo:42046:1,2011-09-03T14:30:00Z,27.8903,-94.0367,4.0,11.95254366,300.2977725,14.06,'11111222,11111222,11111222' 
TABS,ioos:station:wmo:42046:1,2011-09-03T15:00:00Z,27.8903,-94.0367,4.0,11.62332999,296.1902249,13.64,'11111222,11111222,11111222' 
TABS,ioos:station:wmo:42046:1,2011-09-03T15:30:00Z,27.8903,-94.0367,4.0,12.71898188,296.2225086,14.98,'11111222,11111222,11111222' 
TABS,ioos:station:wmo:42046:1,2011-09-03T16:00:00Z,27.8903,-94.0367,4.0,12.56694871,294.9948003,15.32,'11111222,11111222,11111222' 
TABS,ioos:station:wmo:42046:1,2011-09-03T16:30:00Z,27.8903,-94.0367,4.0,12.9793875,294.2941102,15.48,'11111222,11111222,11111222' 
TABS,ioos:station:wmo:42046:1,2011-09-03T17:00:00Z,27.8903,-94.0367,4.0,12.924647,296.2676095,15.24,'11111222,11111222,11111222' 
TABS,ioos:station:wmo:42046:1,2011-09-03T17:30:00Z,27.8903,-94.0367,4.0,13.29398736,295.3891668,15.92,'11111222,11111222,11111222' 
TABS,ioos:station:wmo:42046:1,2011-09-03T18:00:00Z,27.8903,-94.0367,4.0,12.44537263,298.6655059,14.66,'11111222,11111222,11111222' 
TABS,ioos:station:wmo:42046:1,2011-09-03T18:30:00Z,27.8903,-94.0367,4.0,12.0502946,314.1929672,14.44,'11111222,11111222,11111222' 
TABS,ioos:station:wmo:42046:1,2011-09-03T19:00:00Z,27.8903,-94.0367,4.0,12.10477592,297.87752,16.01,'11111222,11111222,11111222' 
TABS,ioos:station:wmo:42046:1,2011-09-03T19:30:00Z,27.8903,-94.0367,4.0,12.72777278,299.2031967,14.75,'11111222,11111222,11111222' 
TABS,ioos:station:wmo:42046:1,2011-09-03T20:00:00Z,27.8903,-94.0367,4.0,11.63641268,301.3267909,15.62,'11111222,11111222,11111222' 
TABS,ioos:station:wmo:42046:1,2011-09-03T20:30:00Z,27.8903,-94.0367,4.0,12.76365152,303.6899887,14.83,'11111222,11111222,11111222' 
TABS,ioos:station:wmo:42046:1,2011-09-03T21:00:00Z,27.8903,-94.0367,4.0,13.78392179,308.5493593,18.64,'11111222,11111222,11111222' 
TABS,ioos:station:wmo:42046:1,2011-09-03T21:30:00Z,27.8903,-94.0367,4.0,12.7584717,316.0796184,16.74,'11111222,11111222,11111222' 
TABS,ioos:station:wmo:42046:1,2011-09-03T22:00:00Z,27.8903,-94.0367,4.0,13.40457012,305.3736236,16.76,'11111222,11111222,11111222' 
TABS,ioos:station:wmo:42046:1,2011-09-03T22:30:00Z,27.8903,-94.0367,4.0,12.06269041,300.1572154,14.71,'11111222,11111222,11111222' 
TABS,ioos:station:wmo:42046:1,2011-09-03T23:00:00Z,27.8903,-94.0367,4.0,12.39800387,310.1250001,14.85,'11111222,11111222,11111222' 
TABS,ioos:station:wmo:42046:1,2011-09-03T23:30:00Z,27.8903,-94.0367,4.0,12.38117927,309.8884292,15.27,'11111222,11111222,11111222' 
TABS,ioos:station:wmo:42046:1,2011-09-04T00:00:00Z,27.8903,-94.0367,4.0,12.27927115,311.3350702,14.67,'11111222,11111222,11111222' 
TABS,ioos:station:wmo:42046:1,2011-09-04T00:30:00Z,27.8903,-94.0367,4.0,13.97567172,303.6786183,17.58,'11111222,11111222,11111222' 
TABS,ioos:station:wmo:42046:1,2011-09-04T01:00:00Z,27.8903,-94.0367,4.0,13.75478099,302.3497139,16.12,'11111222,11111222,11111222' 
TABS,ioos:station:wmo:42046:1,2011-09-04T01:30:00Z,27.8903,-94.0367,4.0,13.73340817,300.1122192,16.58,'11111222,11111222,11111222' 
TABS,ioos:station:wmo:42046:1,2011-09-04T02:00:00Z,27.8903,-94.0367,4.0,13.54955719,299.7815263,16.98,'11111222,11111222,11111222' 
TABS,ioos:station:wmo:42046:1,2011-09-04T02:30:00Z,27.8903,-94.0367,4.0,13.28991347,294.1156412,15.51,'11111222,11111222,11111222' 
TABS,ioos:station:wmo:42046:1,2011-09-04T03:00:00Z,27.8903,-94.0367,4.0,12.72308532,292.5539948,15.5,'11111222,11111222,11111222' 
TABS,ioos:station:wmo:42046:1,2011-09-04T03:30:00Z,27.8903,-94.0367,4.0,13.07857026,291.9559254,15.71,'11111222,11111222,11111222' 
TABS,ioos:station:wmo:42046:1,2011-09-04T04:00:00Z,27.8903,-94.0367,4.0,11.96550459,289.6312309,13.95,'11111222,11111222,11111222' 
TABS,ioos:station:wmo:42046:1,2011-09-04T04:30:00Z,27.8903,-94.0367,4.0,13.74998545,280.9421598,16.99,'11111222,11111222,11111222' 
TABS,ioos:station:wmo:42046:1,2011-09-04T05:00:00Z,27.8903,-94.0367,4.0,14.19608749,283.566344,16.46,'11111222,11111222,11111222' 
TABS,ioos:station:wmo:42046:1,2011-09-04T05:30:00Z,27.8903,-94.0367,4.0,14.11284876,285.0307584,16.22,'11111222,11111222,11111222' 
TABS,ioos:station:wmo:42046:1,2011-09-04T06:00:00Z,27.8903,-94.0367,4.0,12.97187727,277.5304125,15.01,'11111222,11111222,11111222' 
TABS,ioos:station:wmo:42046:1,2011-09-04T06:30:00Z,27.8903,-94.0367,4.0,12.21524048,277.526435,15.19,'11111222,11111222,11111222' 
TABS,ioos:station:wmo:42046:1,2011-09-04T07:00:00Z,27.8903,-94.0367,4.0,12.30179255,270.9781233,15.01,'11111222,11111222,11111222' 
TABS,ioos:station:wmo:42046:1,2011-09-04T07:30:00Z,27.8903,-94.0367,4.0,13.38890959,274.3691562,14.87,'11111222,11111222,11111222' 
TABS,ioos:station:wmo:42046:1,2011-09-04T08:00:00Z,27.8903,-94.0367,4.0,13.32063812,275.9031767,16.02,'11111222,11111222,11111222' 
TABS,ioos:station:wmo:42046:1,2011-09-04T08:30:00Z,27.8903,-94.0367,4.0,13.80550977,268.3812061,16.77,'11111222,11111222,11111222' 
TABS,ioos:station:wmo:42046:1,2011-09-04T09:00:00Z,27.8903,-94.0367,4.0,13.14961977,274.4488225,15.33,'11111222,11111222,11111222' 
TABS,ioos:station:wmo:42046:1,2011-09-04T09:30:00Z,27.8903,-94.0367,4.0,14.3613161,272.2746591,16.06,'11111222,11111222,11111222' 
TABS,ioos:station:wmo:42046:1,2011-09-04T10:00:00Z,27.8903,-94.0367,4.0,13.76222729,267.5845974,15.81,'11111222,11111222,11111222' 
TABS,ioos:station:wmo:42046:1,2011-09-04T10:30:00Z,27.8903,-94.0367,4.0,14.03497417,276.6692773,16.79,'11111222,11111222,11111222' 
TABS,ioos:station:wmo:42046:1,2011-09-04T11:00:00Z,27.8903,-94.0367,4.0,13.78052249,269.5010665,16.66,'11111222,11111222,11111222' 
TABS,ioos:station:wmo:42046:1,2011-09-04T11:30:00Z,27.8903,-94.0367,4.0,13.57094322,263.739083,16.37,'11111222,11111222,11111222' 
TABS,ioos:station:wmo:42046:1,2011-09-04T12:00:00Z,27.8903,-94.0367,4.0,11.88889398,266.7693857,13.67,'11111222,11111222,11111222' 
TABS,ioos:station:wmo:42046:1,2011-09-04T12:30:00Z,27.8903,-94.0367,4.0,11.52919772,274.0785258,13.71,'11111222,11111222,11111222' 
TABS,ioos:station:wmo:42046:1,2011-09-04T13:00:00Z,27.8903,-94.0367,4.0,13.18667888,260.8805697,16.6,'11111222,11111222,11111222' 
TABS,ioos:station:wmo:42046:1,2011-09-04T13:30:00Z,27.8903,-94.0367,4.0,10.81255751,279.3142046,13.41,'11111222,11111222,11111222' 
TABS,ioos:station:wmo:42046:1,2011-09-04T14:00:00Z,27.8903,-94.0367,4.0,12.21979542,260.4374924,14.79,'11111222,11111222,11111222' 
TABS,ioos:station:wmo:42046:1,2011-09-04T14:30:00Z,27.8903,-94.0367,4.0,12.49672757,268.1198733,14.56,'11111222,11111222,11111222' 
TABS,ioos:station:wmo:42046:1,2011-09-04T15:00:00Z,27.8903,-94.0367,4.0,12.19705292,274.4671486,14.38,'11111222,11111222,11111222' 
TABS,ioos:station:wmo:42046:1,2011-09-04T15:30:00Z,27.8903,-94.0367,4.0,11.64031787,272.4125771,13.96,'11111222,11111222,11111222' 
TABS,ioos:station:wmo:42046:1,2011-09-04T16:00:00Z,27.8903,-94.0367,4.0,10.88246755,274.4269613,12.92,'11111222,11111222,11111222' 
TABS,ioos:station:wmo:42046:1,2011-09-04T16:30:00Z,27.8903,-94.0367,4.0,11.52367997,287.9946624,14.29,'11111222,11111222,11111222' 
TABS,ioos:station:wmo:42046:1,2011-09-04T17:00:00Z,27.8903,-94.0367,4.0,9.266461029,282.9714142,10.75,'11111222,11111222,11111222' 
TABS,ioos:station:wmo:42046:1,2011-09-04T17:30:00Z,27.8903,-94.0367,4.0,9.987517209,291.0662929,12.74,'11111222,11111222,11111222' 
TABS,ioos:station:wmo:42046:1,2011-09-04T18:00:00Z,27.8903,-94.0367,4.0,9.905493425,299.5152286,11.47,'11111222,11111222,11111222' 